Location: *
(48.8489°N, 2.3218°E)
Time: 20:08:54
(UTC+00:00)

USA 229 DEB - Pass Details

Date: 23 August 2019
Orbit: 996 x 1216 km, 63.4° (Epoch: 08 October)

Event Time Altitude Azimuth Distance (km) Brightness Sun altitude
Rises 20:35:10 0° 317° (NW) 3,926 8.4 -15.7°
Reaches altitude 10° 20:37:48 10° 320° (NW) 2,997 7.4 -16.1°
Maximum altitude 20:45:00 72° 45° (NE) 1,217 3.9 -17.0°
Enters shadow 20:49:37 26° 125° (SE) 2,162 4.7 -17.5°
